User: anonymous   Login
Location: �couen
(49.0206°N, 2.3831°E)
Time: 18:14:56
(UTC+00:00)
Language:

CZ-4 R/B - Orbit

View from above orbital plane
View from above orbital plane
View from above satellite
View from above satellite

Ground track
Ground track

The orbit data is extracted from the following two-line orbital elements,

1 29507U 06046C   22018.79454144  .00000669  00000-0  55754-4 0  9991
2 29507  97.7509  49.4371 0046343  11.7832 348.4465 15.01292930832416
Epoch (UTC): 18 January 2022 19:04:08
Eccentricity: 0.0046343
inclination: 97.7509°
perigee height: 531 km
apogee height: 595 km
right ascension of ascending node: 49.4371°
argument of perigee: 11.7832°
revolutions per day: 15.01292930
mean anomaly at epoch: 348.4465°
orbit number at epoch: 83241

The dashed part of the orbit path shows where the satellite is in the earth's shadow,  

DLR